Find Kosmos-2360

NORAD ID: 25406 Int'l Des: 1998-045 Owner: GRUR Country: RU operational
LEOCIRCULAR

Live Position

Loading 3D Globe...

About Kosmos-2360

Description loading...

Upcoming Passes

Passes for default location (London). Set your location on the main map for personalized predictions.

Altitude History

Loading altitude history...

Two-Line Element Set

1 25406U 98045A 26104.84722229 -.00000321 00000-0 -14702-3 0 9997
2 25406 70.7384 52.2164 0004966 68.9090 291.2560 14.12450929429091
Epoch: Apr 14, 2026 • Age: 6 hours

Current Status

Altitude 877.9 km
Velocity 7.41 km/s
Sub-Earth Point -64.77°S, 119.03°E
Launch Date Jul 28, 1998
Age 27.7 years
Type other

Technical Details

Classification Payload
Mass 3250.00 kg
Dry Mass 3250.00 kg
Total Mass 3250.00 kg
Length 4.50 m
Diameter 1.40 m
Span 22.70 m
Shape Cyl + 2 Pan + Ant
Manufacturer YUZHUA
Bus Type Tselina-2
Phase Status Unknown Transfer Status
Owner/State GRUR/RU

Most Searched